Time,TemperatureF,DewpointF,PressureIn,WindDirection,WindDirectionDegrees,WindSpeedMPH,WindSpeedGustMPH,Humidity,HourlyPrecipIn,Conditions,Clouds,dailyrainin,SoftwareType,DateUTC
2017-03-26 00:00:00,76.1,70.6,29.93,East,90,2.5,5.0,84,0.00,,,0.00,Arduino-ESP8266,2017-03-26 04:00:00,
2017-03-26 00:06:00,76.1,70.8,29.93,East,90,2.6,4.0,85,0.00,,,0.00,Arduino-ESP8266,2017-03-26 04:06:00,
2017-03-26 00:11:00,76.1,70.8,29.93,East,90,3.8,6.5,85,0.00,,,0.00,Arduino-ESP8266,2017-03-26 04:11:00,
2017-03-26 00:16:00,76.1,70.7,29.93,East,90,3.2,5.6,85,0.00,,,0.00,Arduino-ESP8266,2017-03-26 04:16:00,
2017-03-26 00:23:00,76.1,71.0,29.93,East,81,2.8,5.6,85,0.00,,,0.00,Arduino-ESP8266,2017-03-26 04:23:00,
2017-03-26 00:31:00,76.1,70.9,29.93,East,99,2.6,5.3,85,0.00,,,0.00,Arduino-ESP8266,2017-03-26 04:31:00,
2017-03-26 00:36:00,76.0,70.9,29.92,East,90,3.8,9.6,85,0.00,,,0.00,Arduino-ESP8266,2017-03-26 04:36:00,
2017-03-26 00:41:00,75.9,70.9,29.92,East,90,2.8,5.9,86,0.00,,,0.00,Arduino-ESP8266,2017-03-26 04:41:00,
2017-03-26 00:49:00,75.9,71.0,29.91,East,94,4.0,8.1,86,0.00,,,0.00,Arduino-ESP8266,2017-03-26 04:49:00,
2017-03-26 00:59:00,75.8,70.9,29.91,East,90,3.4,8.4,86,0.00,,,0.00,Arduino-ESP8266,2017-03-26 04:59:00,
2017-03-26 01:06:00,75.7,70.9,29.91,East,90,3.5,6.2,86,0.00,,,0.00,Arduino-ESP8266,2017-03-26 05:06:00,
2017-03-26 01:11:00,75.7,70.9,29.91,East,90,3.3,6.8,86,0.00,,,0.00,Arduino-ESP8266,2017-03-26 05:11:00,
2017-03-26 01:16:00,75.7,70.9,29.91,East,90,3.8,6.2,86,0.00,,,0.00,Arduino-ESP8266,2017-03-26 05:16:00,
2017-03-26 01:22:00,75.8,71.1,29.91,East,85,3.7,6.2,87,0.00,,,0.00,Arduino-ESP8266,2017-03-26 05:22:00,
2017-03-26 01:30:00,75.8,71.3,29.90,East,90,2.4,4.0,87,0.00,,,0.00,Arduino-ESP8266,2017-03-26 05:30:00,
2017-03-26 01:35:00,75.7,70.9,29.90,East,90,3.5,5.9,86,0.00,,,0.00,Arduino-ESP8266,2017-03-26 05:35:00,
2017-03-26 01:40:00,75.8,70.9,29.90,East,90,3.0,5.9,86,0.00,,,0.00,Arduino-ESP8266,2017-03-26 05:40:00,
2017-03-26 01:47:00,75.9,71.1,29.90,East,94,3.1,5.6,86,0.00,,,0.00,Arduino-ESP8266,2017-03-26 05:47:00,
2017-03-26 01:52:00,76.0,71.4,29.89,East,85,3.0,5.0,87,0.00,,,0.00,Arduino-ESP8266,2017-03-26 05:52:00,
2017-03-26 01:57:00,75.9,71.3,29.89,East,90,2.9,5.3,87,0.00,,,0.00,Arduino-ESP8266,2017-03-26 05:57:00,
2017-03-26 02:02:00,75.9,71.4,29.89,East,90,3.5,6.2,87,0.00,,,0.00,Arduino-ESP8266,2017-03-26 06:02:00,
2017-03-26 02:08:00,75.8,71.3,29.88,East,98,4.2,7.2,87,0.00,,,0.00,Arduino-ESP8266,2017-03-26 06:08:00,
2017-03-26 02:19:00,75.5,71.0,29.88,East,90,4.3,7.5,87,0.00,,,0.00,Arduino-ESP8266,2017-03-26 06:19:00,
2017-03-26 02:25:00,75.6,71.2,29.88,East,90,3.4,5.9,87,0.00,,,0.00,Arduino-ESP8266,2017-03-26 06:25:00,
2017-03-26 02:30:00,75.5,71.1,29.88,East,90,4.6,7.8,87,0.00,,,0.00,Arduino-ESP8266,2017-03-26 06:30:00,
2017-03-26 02:37:00,75.4,71.0,29.87,East,90,4.7,8.1,87,0.00,,,0.00,Arduino-ESP8266,2017-03-26 06:37:00,
2017-03-26 02:44:00,75.4,71.3,29.87,ESE,117,4.1,7.5,88,0.00,,,0.00,Arduino-ESP8266,2017-03-26 06:44:00,
2017-03-26 02:50:00,74.9,71.0,29.87,ESE,117,8.7,17.4,89,0.00,,,0.00,Arduino-ESP8266,2017-03-26 06:50:00,
2017-03-26 02:55:00,74.7,71.0,29.87,ESE,106,4.4,9.3,89,0.00,,,0.00,Arduino-ESP8266,2017-03-26 06:55:00,
2017-03-26 03:01:00,73.9,69.9,29.86,ESE,110,6.3,10.9,88,0.00,,,0.00,Arduino-ESP8266,2017-03-26 07:01:00,
2017-03-26 03:07:00,73.9,70.4,29.86,ESE,108,3.2,6.8,90,0.00,,,0.00,Arduino-ESP8266,2017-03-26 07:07:00,
2017-03-26 03:12:00,74.2,71.0,29.86,East,90,1.3,3.4,91,0.00,,,0.00,Arduino-ESP8266,2017-03-26 07:12:00,
2017-03-26 03:18:00,74.2,71.1,29.87,East,90,2.8,8.4,91,0.00,,,0.00,Arduino-ESP8266,2017-03-26 07:18:00,
2017-03-26 03:23:00,74.3,71.3,29.86,East,90,4.2,8.4,91,0.00,,,0.00,Arduino-ESP8266,2017-03-26 07:23:00,
2017-03-26 03:29:00,74.3,71.4,29.86,East,90,2.6,6.8,91,0.00,,,0.00,Arduino-ESP8266,2017-03-26 07:29:00,
2017-03-26 03:37:00,73.6,70.3,29.87,ESE,121,4.1,9.6,90,0.00,,,0.00,Arduino-ESP8266,2017-03-26 07:37:00,
2017-03-26 03:43:00,73.3,69.8,29.86,East,90,3.9,6.2,90,0.00,,,0.00,Arduino-ESP8266,2017-03-26 07:43:00,
2017-03-26 03:51:00,73.3,69.3,29.87,ESE,103,2.9,6.2,88,0.00,,,0.00,Arduino-ESP8266,2017-03-26 07:51:00,
2017-03-26 03:58:00,73.5,69.6,29.87,South,184,1.9,3.7,88,0.00,,,0.00,Arduino-ESP8266,2017-03-26 07:58:00,
2017-03-26 04:03:00,74.0,70.3,29.87,East,90,2.5,5.0,89,0.00,,,0.00,Arduino-ESP8266,2017-03-26 08:03:00,
2017-03-26 04:10:00,74.5,71.2,29.87,East,90,2.8,6.2,90,0.00,,,0.00,Arduino-ESP8266,2017-03-26 08:10:00,
2017-03-26 04:15:00,74.6,71.3,29.87,East,81,2.4,5.6,90,0.00,,,0.00,Arduino-ESP8266,2017-03-26 08:15:00,
2017-03-26 04:20:00,74.4,71.0,29.87,East,90,3.6,6.8,90,0.00,,,0.00,Arduino-ESP8266,2017-03-26 08:20:00,
2017-03-26 04:31:00,74.5,71.4,29.87,ESE,103,2.3,5.6,91,0.00,,,0.00,Arduino-ESP8266,2017-03-26 08:31:00,
2017-03-26 04:36:00,74.6,71.7,29.87,East,99,2.3,5.3,91,0.00,,,0.00,Arduino-ESP8266,2017-03-26 08:36:00,
2017-03-26 04:41:00,74.8,72.0,29.88,East,90,2.0,2.8,92,0.00,,,0.00,Arduino-ESP8266,2017-03-26 08:41:00,
2017-03-26 04:50:00,74.6,71.6,29.88,East,90,0.5,1.5,91,0.00,,,0.00,Arduino-ESP8266,2017-03-26 08:50:00,
2017-03-26 04:55:00,74.5,71.2,29.88,East,90,2.7,6.2,90,0.00,,,0.00,Arduino-ESP8266,2017-03-26 08:55:00,
2017-03-26 05:00:00,74.4,70.8,29.88,East,90,2.5,5.6,89,0.00,,,0.00,Arduino-ESP8266,2017-03-26 09:00:00,
2017-03-26 05:06:00,74.4,69.7,29.88,ESE,117,1.1,2.5,87,0.00,,,0.00,Arduino-ESP8266,2017-03-26 09:06:00,
2017-03-26 05:12:00,74.9,70.7,29.88,East,90,2.2,5.3,88,0.00,,,0.00,Arduino-ESP8266,2017-03-26 09:12:00,
2017-03-26 05:17:00,75.2,71.2,29.88,East,90,3.8,8.4,88,0.00,,,0.00,Arduino-ESP8266,2017-03-26 09:17:00,
2017-03-26 05:26:00,75.0,70.3,29.88,East,90,3.0,5.9,87,0.00,,,0.00,Arduino-ESP8266,2017-03-26 09:26:00,
2017-03-26 05:32:00,75.1,70.5,29.89,East,81,2.3,5.0,87,0.00,,,0.00,Arduino-ESP8266,2017-03-26 09:32:00,
2017-03-26 05:37:00,75.3,71.1,29.89,East,90,4.0,10.6,88,0.00,,,0.00,Arduino-ESP8266,2017-03-26 09:37:00,
2017-03-26 05:43:00,75.4,71.3,29.89,East,94,2.4,4.7,88,0.00,,,0.00,Arduino-ESP8266,2017-03-26 09:43:00,
2017-03-26 05:48:00,75.3,70.8,29.89,East,90,3.6,5.3,87,0.00,,,0.00,Arduino-ESP8266,2017-03-26 09:48:00,
2017-03-26 05:54:00,75.3,70.6,29.89,ESE,106,4.1,6.8,87,0.00,,,0.00,Arduino-ESP8266,2017-03-26 09:54:00,
2017-03-26 05:59:00,75.5,71.1,29.89,East,94,2.0,5.0,88,0.00,,,0.00,Arduino-ESP8266,2017-03-26 09:59:00,
2017-03-26 06:10:00,75.2,71.4,29.90,East,81,3.0,4.7,89,0.00,,,0.00,Arduino-ESP8266,2017-03-26 10:10:00,
2017-03-26 06:17:00,74.9,71.5,29.90,East,98,2.4,5.0,90,0.00,,,0.00,Arduino-ESP8266,2017-03-26 10:17:00,
2017-03-26 06:22:00,74.9,71.6,29.90,East,85,2.2,4.3,90,0.00,,,0.00,Arduino-ESP8266,2017-03-26 10:22:00,
2017-03-26 06:32:00,74.9,71.8,29.90,East,85,3.1,7.2,91,0.00,,,0.00,Arduino-ESP8266,2017-03-26 10:32:00,
2017-03-26 06:38:00,75.0,72.0,29.90,East,85,3.5,6.5,91,0.00,,,0.00,Arduino-ESP8266,2017-03-26 10:38:00,
2017-03-26 06:43:00,75.0,72.0,29.90,East,94,0.9,2.2,91,0.00,,,0.00,Arduino-ESP8266,2017-03-26 10:43:00,
2017-03-26 06:48:00,75.2,72.1,29.90,East,98,3.0,4.7,91,0.00,,,0.00,Arduino-ESP8266,2017-03-26 10:48:00,
2017-03-26 06:53:00,75.9,72.5,29.91,East,81,2.9,5.9,90,0.00,,,0.00,Arduino-ESP8266,2017-03-26 10:53:00,
2017-03-26 06:59:00,77.4,73.3,29.91,ESE,112,2.7,4.3,88,0.00,,,0.00,Arduino-ESP8266,2017-03-26 10:59:00,
2017-03-26 07:04:00,78.2,72.5,29.91,East,94,2.8,5.3,84,0.00,,,0.00,Arduino-ESP8266,2017-03-26 11:04:00,
2017-03-26 07:09:00,79.3,72.9,29.91,East,98,4.4,9.9,82,0.00,,,0.00,Arduino-ESP8266,2017-03-26 11:09:00,
2017-03-26 07:15:00,80.3,73.2,29.91,East,90,3.5,7.2,80,0.00,,,0.00,Arduino-ESP8266,2017-03-26 11:15:00,
2017-03-26 07:26:00,82.2,74.2,29.92,ENE,76,2.9,6.2,77,0.00,,,0.00,Arduino-ESP8266,2017-03-26 11:26:00,
2017-03-26 07:32:00,82.3,73.7,29.92,East,90,5.0,9.6,76,0.00,,,0.00,Arduino-ESP8266,2017-03-26 11:32:00,
2017-03-26 07:37:00,82.3,74.2,29.92,East,85,3.9,6.8,77,0.00,,,0.00,Arduino-ESP8266,2017-03-26 11:37:00,
2017-03-26 07:42:00,82.8,74.4,29.92,ESE,110,3.3,6.8,76,0.00,,,0.00,Arduino-ESP8266,2017-03-26 11:42:00,
2017-03-26 07:47:00,83.2,74.4,29.92,East,94,4.2,8.7,75,0.00,,,0.00,Arduino-ESP8266,2017-03-26 11:47:00,
2017-03-26 07:53:00,83.2,74.0,29.93,ENE,72,4.5,9.6,74,0.00,,,0.00,Arduino-ESP8266,2017-03-26 11:53:00,
2017-03-26 08:02:00,82.8,73.6,29.93,ESE,103,3.7,7.8,74,0.00,,,0.00,Arduino-ESP8266,2017-03-26 12:02:00,
2017-03-26 08:09:00,82.8,73.6,29.94,East,99,4.8,8.1,74,0.00,,,0.00,Arduino-ESP8266,2017-03-26 12:09:00,
2017-03-26 08:14:00,82.9,73.5,29.94,East,90,5.9,8.7,73,0.00,,,0.00,Arduino-ESP8266,2017-03-26 12:14:00,
2017-03-26 08:19:00,83.2,74.0,29.94,East,85,4.4,8.7,74,0.00,,,0.00,Arduino-ESP8266,2017-03-26 12:19:00,
2017-03-26 08:27:00,83.2,74.0,29.94,East,90,3.8,6.8,74,0.00,,,0.00,Arduino-ESP8266,2017-03-26 12:27:00,
2017-03-26 08:32:00,83.8,74.3,29.94,East,85,4.4,8.1,73,0.00,,,0.00,Arduino-ESP8266,2017-03-26 12:32:00,
2017-03-26 08:37:00,83.6,74.5,29.95,East,81,5.6,11.2,74,0.00,,,0.00,Arduino-ESP8266,2017-03-26 12:37:00,
2017-03-26 08:42:00,83.9,74.6,29.95,ESE,110,4.4,8.1,74,0.00,,,0.00,Arduino-ESP8266,2017-03-26 12:42:00,
2017-03-26 08:47:00,84.5,74.6,29.95,East,85,7.1,11.2,72,0.00,,,0.00,Arduino-ESP8266,2017-03-26 12:47:00,
2017-03-26 08:54:00,84.1,73.2,29.94,East,90,5.6,9.9,69,0.00,,,0.00,Arduino-ESP8266,2017-03-26 12:54:00,
2017-03-26 09:02:00,83.8,73.4,29.95,ESE,103,3.6,6.2,71,0.00,,,0.00,Arduino-ESP8266,2017-03-26 13:02:00,
2017-03-26 09:08:00,83.5,73.5,29.95,East,94,5.8,12.1,72,0.00,,,0.00,Arduino-ESP8266,2017-03-26 13:08:00,
2017-03-26 09:13:00,83.8,74.1,29.95,East,99,4.8,8.4,73,0.00,,,0.00,Arduino-ESP8266,2017-03-26 13:13:00,
2017-03-26 09:19:00,84.3,74.4,29.95,ESE,106,5.5,9.9,72,0.00,,,0.00,Arduino-ESP8266,2017-03-26 13:19:00,
2017-03-26 09:25:00,84.1,73.9,29.95,ESE,102,6.5,9.6,71,0.00,,,0.00,Arduino-ESP8266,2017-03-26 13:25:00,
2017-03-26 09:30:00,84.1,74.1,29.95,East,90,6.1,10.9,72,0.00,,,0.00,Arduino-ESP8266,2017-03-26 13:30:00,
2017-03-26 09:35:00,84.3,73.8,29.95,East,99,5.4,9.3,70,0.00,,,0.00,Arduino-ESP8266,2017-03-26 13:35:00,
2017-03-26 09:40:00,84.9,73.8,29.95,East,99,4.7,9.6,69,0.00,,,0.00,Arduino-ESP8266,2017-03-26 13:40:00,
2017-03-26 09:45:00,85.7,74.2,29.95,East,99,3.1,5.9,68,0.00,,,0.00,Arduino-ESP8266,2017-03-26 13:45:00,
2017-03-26 09:51:00,86.0,74.4,29.94,East,98,5.1,9.9,67,0.00,,,0.00,Arduino-ESP8266,2017-03-26 13:51:00,